[[[{"header":{"parameterUnit":"kt","parameterCategory":2,"dx":1,"dy":1,"la1":30.253999710083008,"la2":30.299108505249023,"lo1":-89.0895004272461,"lo2":-89.04439544677734,"nx":28,"ny":28,"refTime":"2022-09-26T21:00:00:Z","depth":0,"parameterNumber":1,"parameterNumberName":"U-component_of_WINDS"},"data":[-4.3721,-4.391,-4.3922,-4.4143,-4.4191,-4.4344,-4.4403,-4.448,-4.4543,-4.4727,-4.4834,-4.4865,-4.4933,-4.5064,-4.5181,-4.5192,-4.5243,-4.53,-4.5304,-4.5034,-4.4997,-4.4962,-4.492,-4.531,-4.531,-4.5585,-4.5587,-4.5589,-4.352,-4.357,-4.3689,-4.3815,-4.3918,-4.3869,-4.3963,-4.4053,-4.4192,-4.4271,-4.4378,-4.454,-4.467,-4.4719,-4.4846,-4.4935,-4.492,-4.4969,-4.4965,-4.4977,-4.4687,-4.4642,-4.4978,-4.4978,-4.4978,-4.4978,-4.4978,-4.4978,-4.3158,-4.3271,-4.3354,-4.3485,-4.355,-4.3633,-4.3743,-4.3778,-4.3896,-4.403,-4.4021,-4.4177,-4.426,-4.4418,-4.4474,-4.4596,-4.4545,-4.4603,-4.4618,-4.4634,-4.4651,-4.4258,-4.4618,-4.4617,-4.4616,-4.4615,-4.4614,0,-4.2899,-4.2901,-4.3017,-4.3138,-4.3233,-4.3327,-4.3416,-4.3483,-4.3492,-4.3589,-4.373,-4.3814,-4.3978,-4.4113,-4.4234,-4.4281,-4.4243,-4.4239,-4.4279,-4.429,-4.4283,-4.4293,-4.3823,-4.423,-4.4227,-4.4224,-4.4223,-4.4221,-4.2539,-4.2668,-4.276,-4.284,-4.2891,-4.302,-4.31,-4.3098,-4.3182,-4.329,-4.339,-4.3523,-4.3632,-4.3855,-4.3897,-4.402,-4.4004,-4.4158,-4.4022,-4.4025,-4.4012,-4.4006,-4.402,-4.4187,-4.4191,-4.4195,-4.4198,0,-4.2336,-4.2355,-4.2559,-4.2637,-4.2661,-4.2796,-4.2864,-4.2976,-4.2998,-4.3155,-4.3192,-4.3228,-4.3367,-4.3383,-4.3545,-4.3549,-4.3774,-4.3752,-4.3746,-4.3744,-4.3887,-4.3876,-4.4342,-4.4404,-4.3995,-4.3999,-4.4002,0,-4.2039,-4.2208,-4.2227,-4.2345,-4.2533,-4.2527,-4.2713,-4.2751,-4.2822,-4.2946,-4.2904,-4.3021,-4.3023,-4.3143,-4.315,-4.3336,-4.3365,-4.3381,-4.3383,-4.3389,-4.3388,-4.3438,-4.3421,-4.3374,-4.3371,-4.3369,-4.3367,0,-4.1723,-4.193,-4.212,-4.2171,-4.2273,-4.2362,-4.2408,-4.2488,-4.2566,-4.2669,-4.272,-4.284,-4.2908,-4.3001,-4.301,-4.2918,-4.3236,-4.3112,-4.3254,-4.3254,-4.3329,-4.3325,-4.3728,-4.3364,-4.3364,-4.3363,-4.3362,0,-4.1488,-4.1592,-4.1864,-4.1948,-4.2003,-4.2127,-4.2247,-4.2357,-4.2444,-4.2457,-4.2538,-4.2514,-4.2675,-4.255,-4.2773,-4.2651,-4.2719,-4.2749,-4.2759,-4.278,-4.2641,-4.2873,-4.3251,-4.3293,-4.2791,-4.2786,-4.2782,0,-4.1123,-4.1402,-4.14,-4.1658,-4.179,-4.1735,-4.1873,-4.1951,-4.198,-4.2096,-4.2126,-4.2258,-4.2168,-4.2213,-4.232,-4.2359,-4.2517,-4.2337,-4.2508,-4.2514,-4.2491,-4.2838,-4.2893,-4.3165,-4.2721,-4.2728,-4.2732,0,-4.0844,-4.0966,-4.1012,-4.1071,-4.1174,-4.1284,-4.1441,-4.1571,-4.1649,-4.1741,-4.1875,-4.2059,-4.2,-4.2074,-4.2067,-4.2178,-4.241,-4.2101,-4.2103,-4.2159,-4.2691,-4.2743,-4.2788,-4.238,-4.2388,-4.2394,-4.2684,0,-4.0492,-4.0633,-4.0757,-4.0887,-4.0974,-4.1136,-4.1155,-4.1243,-4.1228,-4.1255,-4.145,-4.152,-4.1654,-4.1708,-4.1695,-4.1944,-4.1906,-4.1841,-4.1726,-4.1951,-4.2048,-4.2087,-4.158,-4.1577,-4.1574,-4.1572,0,0,-4.014,-4.0344,-4.0338,-4.0491,-4.0565,-4.0507,-4.0679,-4.0743,-4.0876,-4.0929,-4.0863,-4.1135,-4.1195,-4.1432,-4.1503,-4.1556,-4.1604,-4.1525,-4.1843,-4.1873,-4.1901,-4.2004,-4.2044,-4.1567,-4.1566,-4.1565,-4.1564,0,-4.0017,-4.0077,-4.0246,-4.0313,-4.0411,-4.0431,-4.0472,-4.056,-4.0586,-4.0777,-4.0729,-4.0848,-4.1066,-4.1137,-4.1202,-4.1495,-4.1454,-4.1533,-4.1686,-4.1814,-4.1848,-4.1878,-4.1985,-4.2024,-4.1557,-4.1557,-4.1558,0,-3.9748,-3.9813,-3.9896,-4.0059,-4.0123,-4.026,-4.0141,-4.029,-4.0392,-4.0323,-4.0515,-4.0557,-4.0653,-4.0873,-4.0973,-4.0917,-4.1317,-4.1193,-4.1211,-4.1224,-4.1349,-4.139,-4.1426,-4.095,-4.0948,-4.0946,0,0,-3.964,-3.9771,-3.984,-4.0034,-4.0077,-4.011,-4.0185,-4.0178,-4.0265,-4.0301,-4.0355,-4.0442,-4.0568,-4.0652,-4.0771,-4.1009,-4.1031,-4.1117,-4.1146,-4.1169,-4.1195,-4.1326,-4.1366,-4.0938,-4.0938,-4.0937,0,0,-3.9588,-3.9677,-3.9646,-3.9873,-3.9957,-4.004,-4.0158,-4.0123,-4.0233,-4.0217,-4.0213,-4.0237,-4.0442,-4.0486,-4.0373,-4.0731,-4.0615,-4.0643,-4.0696,-4.0733,-4.0761,-4.0748,-4.0264,0,0,0,0,0,-3.9473,-3.9665,-3.9637,-3.9677,-3.9885,-4.0055,-4.0082,-4.0083,-4.0001,-4.0094,-4.0134,-4.0084,-4.0424,-4.0324,-4.0365,-4.0493,-4.0831,-4.085,-4.0868,-4.0993,-4.1031,-4.1063,0,0,0,0,0,0,-3.9489,-3.9539,-3.9632,-3.9722,-3.9768,-4.0048,-3.991,-3.9916,-3.9991,-3.9979,-4.0078,-4.0087,-4.0092,-4.0303,-4.034,-4.0462,-4.0252,-4.0839,-4.0855,-4.0869,-4.1006,-4.1037,-4.1063,0,0,0,0,0,-3.9502,-3.9542,-3.9874,-3.9719,-3.976,-3.9808,-3.9903,-3.9906,-3.9965,-4.0027,-4.0035,-3.996,-4.0096,-4.0127,-4.0325,-4.0445,-4.0226,-4.024,-4.0849,-4.0862,-4.0873,-4.1021,0,0,0,0,0,0,-3.9512,-3.9547,-3.9882,-3.9894,-3.9647,-3.9792,-3.9815,-3.9899,-4.0008,-4.0018,-3.9907,-3.9897,-4.0101,-4.0124,-4.0148,-4.0439,-4.0205,-4.022,-4.0228,-4.0859,-4.0869,-4.0878,0,0,0,0,0,0,-3.9526,-3.9558,-3.9888,-3.9797,-3.9799,-3.9778,-3.9798,-3.9966,-4.001,-3.9882,-3.9877,-3.9901,-4.0064,-4.0123,-4.0141,-4.0404,-4.0189,-4.0203,-4.0212,-4.0218,-4.0867,-4.0875,0,0,0,0,0,0,-3.9539,-3.9567,-3.9794,-3.9795,-3.9797,-3.9936,-3.9926,-4.0139,-3.9931,-3.9878,-3.9913,-3.9904,-4.0065,-4.0083,-4.0137,-4.0392,-4.0401,-4.019,-4.0199,-4.0205,-4.021,0,0,0,0,0,0,0,-3.9551,-3.9363,-3.9808,-3.9794,-3.9795,-4.0009,-4.0012,-4.0015,-3.9929,-3.9922,-3.9915,-3.9908,-4.0113,-4.0127,-4.0142,-4.0382,0,0,-4.0188,-4.0195,0,0,0,0,0,0,0,0,-3.9351,-3.936,-3.9809,-3.9811,-3.9814,-4.0009,-4.0012,-4.0015,-3.9928,-3.9922,-3.9916,-3.9911,-4.0117,-4.0129,-4.0141,0,0,0,0,0,0,0,0,0,0,0,0,0,0,0,-3.9809,-3.9811,0,-4.001,-4.0012,-4.0014,-3.9927,-3.9922,-3.9917,-3.9913,-4.012,-4.013,-4.014,0,0,0,0,0,0,0,0,0,0,0,0,0,0,0,0,0,0,0,0,0,0,0,0,0,0,0,0,0,0,0,0,0,0,0,0,0,0,0,0,0,0,0,0,0,0,0,0,0,0,0,0,0,0,0,0,0,0,0,0,0,0,0,0,0,0,0,0,0]}],[{"header":{"parameterUnit":"kt","parameterCategory":2,"dx":1,"dy":1,"la1":30.253999710083008,"la2":30.299108505249023,"lo1":-89.0895004272461,"lo2":-89.04439544677734,"nx":28,"ny":28,"refTime":"2022-09-26T21:00:00:Z","depth":0,"parameterNumber":2,"parameterNumberName":"V-component_of_WINDS"},"data":[-13.564,-13.5874,-13.5872,-13.6135,-13.6176,-13.6353,-13.6415,-13.6493,-13.6553,-13.676,-13.6877,-13.6893,-13.6947,-13.7081,-13.7204,-13.7207,-13.7259,-13.7345,-13.7334,-13.6958,-13.6905,-13.6855,-13.6801,-13.7357,-13.7358,-13.7724,-13.7727,-13.773,-13.5364,-13.5409,-13.5548,-13.568,-13.5798,-13.5713,-13.5809,-13.5911,-13.6071,-13.6146,-13.6261,-13.6441,-13.6581,-13.6605,-13.6736,-13.684,-13.6805,-13.6876,-13.6867,-13.6877,-13.6475,-13.6418,-13.6902,-13.6902,-13.6902,-13.6902,-13.6901,-13.6901,-13.486,-13.5001,-13.5079,-13.5229,-13.5294,-13.5381,-13.5512,-13.5531,-13.5663,-13.5804,-13.577,-13.5948,-13.6019,-13.6173,-13.6221,-13.6357,-13.6276,-13.635,-13.6368,-13.6387,-13.641,-13.5883,-13.6378,-13.6377,-13.6375,-13.6374,-13.6373,0,-13.449,-13.4478,-13.4611,-13.4744,-13.4852,-13.4953,-13.5043,-13.5124,-13.509,-13.52,-13.5358,-13.5447,-13.5621,-13.5766,-13.5886,-13.5921,-13.5839,-13.583,-13.588,-13.5901,-13.5903,-13.5904,-13.5249,-13.5815,-13.581,-13.5807,-13.5804,-13.5802,-13.398,-13.4145,-13.4224,-13.4318,-13.4367,-13.4518,-13.4606,-13.4564,-13.4659,-13.4761,-13.4884,-13.5029,-13.5143,-13.5393,-13.5405,-13.5533,-13.5494,-13.5712,-13.5513,-13.5526,-13.5497,-13.5488,-13.5503,-13.5751,-13.5758,-13.5763,-13.5767,0,-13.3694,-13.3687,-13.3939,-13.4,-13.402,-13.4193,-13.4242,-13.4378,-13.4379,-13.4565,-13.4605,-13.4606,-13.4759,-13.4737,-13.4906,-13.4889,-13.5166,-13.5125,-13.5142,-13.5132,-13.5324,-13.5306,-13.5952,-13.6033,-13.5456,-13.5462,-13.5467,0,-13.3256,-13.3473,-13.3448,-13.3596,-13.3834,-13.3787,-13.4022,-13.4046,-13.4108,-13.4254,-13.416,-13.4298,-13.4248,-13.4382,-13.4358,-13.458,-13.4612,-13.4611,-13.4602,-13.462,-13.4621,-13.4667,-13.464,-13.4575,-13.4572,-13.4569,-13.4567,0,-13.2808,-13.3048,-13.3287,-13.334,-13.3425,-13.3537,-13.3577,-13.3645,-13.3731,-13.3837,-13.3892,-13.4018,-13.4088,-13.4185,-13.4153,-13.4019,-13.4424,-13.4233,-13.4424,-13.4425,-13.4515,-13.4509,-13.5087,-13.4563,-13.4562,-13.4561,-13.4559,0,-13.2452,-13.2567,-13.2915,-13.2982,-13.3047,-13.3203,-13.3327,-13.3455,-13.3534,-13.3529,-13.3612,-13.3546,-13.3739,-13.3551,-13.3816,-13.3651,-13.3723,-13.374,-13.3753,-13.3769,-13.3559,-13.3888,-13.444,-13.4497,-13.3783,-13.3777,-13.3771,0,-13.1941,-13.229,-13.2253,-13.2583,-13.2741,-13.2626,-13.2797,-13.287,-13.2879,-13.301,-13.3017,-13.3167,-13.3022,-13.3065,-13.3199,-13.3212,-13.3426,-13.3182,-13.3367,-13.3374,-13.335,-13.3859,-13.3947,-13.4322,-13.3688,-13.3697,-13.3703,0,-13.1544,-13.1648,-13.171,-13.1768,-13.186,-13.1991,-13.2188,-13.2328,-13.2418,-13.251,-13.2672,-13.2881,-13.278,-13.2853,-13.2811,-13.2952,-13.3279,-13.2824,-13.2825,-13.2906,-13.3644,-13.3727,-13.379,-13.3219,-13.3229,-13.3237,-13.3637,0,-13.1008,-13.1181,-13.1348,-13.148,-13.1578,-13.1784,-13.1764,-13.1868,-13.182,-13.1824,-13.2062,-13.2114,-13.2253,-13.2318,-13.2271,-13.2602,-13.2542,-13.2433,-13.2247,-13.2581,-13.2712,-13.2766,-13.2054,-13.2048,-13.2043,-13.204,0,0,-13.052,-13.0768,-13.0721,-13.0913,-13.0993,-13.087,-13.1091,-13.1153,-13.1282,-13.1338,-13.1234,-13.1538,-13.1585,-13.1875,-13.1977,-13.2034,-13.209,-13.1974,-13.2422,-13.2465,-13.2505,-13.2645,-13.2702,-13.2031,-13.2029,-13.2028,-13.2026,0,-13.0321,-13.0378,-13.0599,-13.0663,-13.0755,-13.0749,-13.0803,-13.0871,-13.0883,-13.1117,-13.1009,-13.1148,-13.1393,-13.1456,-13.152,-13.1939,-13.1848,-13.1982,-13.2216,-13.2376,-13.2425,-13.2468,-13.2616,-13.2671,-13.2015,-13.2016,-13.2016,0,-12.9925,-12.9978,-13.0083,-13.0261,-13.0319,-13.0484,-13.0286,-13.0468,-13.0588,-13.044,-13.0673,-13.0699,-13.0782,-13.106,-13.1183,-13.1092,-13.1629,-13.1455,-13.1485,-13.1497,-13.1651,-13.171,-13.1763,-13.107,-13.1066,-13.1063,0,0,-12.9755,-12.9916,-12.9958,-13.0216,-13.0261,-13.0256,-13.0341,-13.0301,-13.0381,-13.0414,-13.0445,-13.0524,-13.0664,-13.0758,-13.0888,-13.1197,-13.1209,-13.134,-13.1385,-13.1421,-13.1454,-13.1617,-13.1676,-13.1051,-13.1051,-13.1051,0,0,-12.9672,-12.9733,-12.9671,-12.9969,-13.005,-13.0106,-13.0263,-13.0187,-13.0303,-13.0277,-13.0215,-13.0234,-13.0492,-13.0522,-13.0364,-13.0821,-13.0638,-13.0675,-13.0793,-13.0849,-13.0893,-13.088,-13.0165,0,0,0,0,0,-12.9459,-12.9725,-12.9669,-12.9716,-12.9938,-13.0138,-13.0165,-13.0123,-12.9995,-13.012,-13.0134,-13.0031,-13.0423,-13.0282,-13.0328,-13.0504,-13.0896,-13.0924,-13.095,-13.1174,-13.1233,-13.1282,0,0,0,0,0,0,-12.9477,-12.9535,-12.9661,-12.973,-12.9779,-13.0128,-12.9901,-12.9897,-12.998,-12.9958,-13.0032,-13.0033,-12.9998,-13.0256,-13.0297,-13.0466,-13.0151,-13.0907,-13.093,-13.0951,-13.1194,-13.1242,-13.1283,0,0,0,0,0,-12.9491,-12.9537,-12.9906,-12.9725,-12.9768,-12.9776,-12.9891,-12.9885,-12.9949,-12.9971,-12.9969,-12.991,-13.0005,-13.0036,-13.028,-13.0448,-13.0122,-13.0137,-13.0922,-13.0941,-13.0957,-13.1218,0,0,0,0,0,0,-12.9501,-12.9532,-12.9913,-12.9925,-12.9622,-12.9755,-12.9775,-12.9876,-12.9955,-12.9957,-12.9844,-12.9825,-13.0012,-13.0035,-13.0061,-13.0445,-13.0098,-13.0114,-13.0124,-13.0936,-13.0951,-13.0964,0,0,0,0,0,0,-12.9507,-12.9543,-12.9919,-12.9791,-12.9787,-12.9737,-12.9755,-12.9954,-12.9958,-12.9823,-12.981,-12.9835,-12.9973,-13.0036,-13.0055,-13.0369,-13.008,-13.0095,-13.0105,-13.0112,-13.0948,-13.0959,0,0,0,0,0,0,-12.9521,-12.9552,-12.9788,-12.9785,-12.9781,-12.9905,-12.9912,-13.0141,-12.9852,-12.9821,-12.9825,-12.9812,-12.9977,-12.9994,-13.0052,-13.0359,-13.0366,-13.008,-13.009,-13.0098,-13.0103,0,0,0,0,0,0,0,-12.9533,-12.9337,-12.9847,-12.978,-12.9776,-13.003,-13.0033,-13.0036,-12.985,-12.9839,-12.9828,-12.9817,-12.9992,-13.0009,-13.0026,-13.0351,0,0,-13.0078,-13.0086,0,0,0,0,0,0,0,0,-12.9323,-12.9334,-12.9847,-12.985,-12.9852,-13.003,-13.0033,-13.0035,-12.9848,-12.9839,-12.983,-12.9822,-12.9997,-13.001,-13.0024,0,0,0,0,0,0,0,0,0,0,0,0,0,0,0,-12.9848,-12.985,0,-13.003,-13.0032,-13.0034,-12.9846,-12.9839,-12.9832,-12.9825,-13.0001,-13.0012,-13.0023,0,0,0,0,0,0,0,0,0,0,0,0,0,0,0,0,0,0,0,0,0,0,0,0,0,0,0,0,0,0,0,0,0,0,0,0,0,0,0,0,0,0,0,0,0,0,0,0,0,0,0,0,0,0,0,0,0,0,0,0,0,0,0,0,0,0,0,0,0]}]]]